Racine, WI

11:33 AM CDT on June 23, 2017 (GMT -0500)
Batten

Weather History for KRAC - June, 2013

Change the Weather History Date:

Sunday, June 16, 2013

  Actual Average Record
Temperature  
Mean Temperature 78 °F -  
Max Temperature 88 °F 72 °F 92 °F (1952)
Min Temperature 70 °F 55 °F 44 °F (1980)
Cooling Degree Days 14    
Growing Degree Days 28 (Base 50)    
Moisture  
Dew Point 62 °F    
Average Humidity 65    
Maximum Humidity 84    
Minimum Humidity 30    
Precipitation  
Precipitation 1.19 in - - ()
Sea Level Pressure  
Sea Level Pressure 29.88 in    
Wind  
Wind Speed 9 mph (WNW)    
Max Wind Speed 18 mph    
Max Gust Speed 28 mph    
Visibility 7 miles    
Events Rain , Thunderstorm    
Averages and records for this station are not official NWS values.
T = Trace of Precipitation, MM = Missing Value Source: NWS Daily Summary

Daily Weather History Graph

Daily Weather History Graph

Search for Another Location

Airport or City:

Trip Planner

Search our weather history database for the weather conditions in past years. The results will help you decide how hot, cold, wet, or windy it might be!

Date:

Astronomy

Jun. 16, 2013 Rise Set
Actual Time 5:12 AM CDT 8:31 PM CDT
Civil Twilight 4:37 AM CDT 9:06 PM CDT
Nautical Twilight 3:51 AM CDT 9:52 PM CDT
Astronomical Twilight 2:55 AM CDT 10:48 PM CDT
Moon 12:58 PM CDT (6/16) 12:27 AM CDT (6/16)
Length of Visible Light 16h 29m
Length of Day
15h 19m
Waxing Crescent, 50% of the Moon is Illuminated
Jun 16
Waxing Crescent
Jun 16
First Quarter
Jun 23
Full
Jun 29
Last Quarter
Jul 8
New

Hourly Weather History & Observations

Time (CDT) Temp. Heat Index Dew Point Humidity Pressure Visibility Wind Dir Wind Speed Gust Speed Precip Events Conditions
12:16 AM 73.4 °F - 66.2 °F 78% 29.88 in 10.0 mi North 12.7 mph 20.7 mph N/A Thunderstorm Overcast
12:43 AM 71.6 °F - 64.4 °F 78% 29.87 in 1.8 mi WNW 6.9 mph - 0.12 in Rain , Thunderstorm Heavy Rain
12:51 AM 71.6 °F - 66.2 °F 83% 29.87 in 0.8 mi WNW 9.2 mph - 0.34 in Rain , Thunderstorm Heavy Thunderstorms and Rain
12:53 AM 71.1 °F - 66.0 °F 84% 29.86 in 0.8 mi WNW 13.8 mph 19.6 mph 0.49 in Rain , Thunderstorm Heavy Thunderstorms and Rain
1:00 AM 71.6 °F - 66.2 °F 83% 29.86 in 0.5 mi NW 6.9 mph 19.6 mph 0.16 in Rain , Thunderstorm Heavy Thunderstorms and Rain
1:06 AM 71.6 °F - 66.2 °F 83% 29.87 in 1.2 mi West 5.8 mph - 0.25 in Rain Rain
1:11 AM 71.6 °F - 66.2 °F 83% 29.86 in 1.8 mi Variable 5.8 mph - 0.25 in Rain , Thunderstorm Rain
1:16 AM 71.6 °F - 66.2 °F 83% 29.86 in 2.0 mi Variable 3.5 mph - 0.29 in Rain , Thunderstorm Rain
1:22 AM 71.6 °F - 66.2 °F 83% 29.86 in 1.2 mi WNW 18.4 mph 27.6 mph 0.47 in Rain Rain
1:28 AM 73.4 °F - 66.2 °F 78% 29.87 in 0.8 mi West 15.0 mph 27.6 mph 0.60 in Rain , Thunderstorm Heavy Thunderstorms and Rain
1:32 AM 73.4 °F - 64.4 °F 73% 29.86 in 1.0 mi West 16.1 mph 27.6 mph 0.62 in Rain , Thunderstorm Light Thunderstorms and Rain
1:38 AM 73.4 °F - 66.2 °F 78% 29.86 in 2.5 mi West 12.7 mph 25.3 mph 0.63 in Rain , Thunderstorm Light Thunderstorms and Rain
1:45 AM 73.4 °F - 66.2 °F 78% 29.86 in 5.0 mi West 15.0 mph 21.9 mph 0.65 in Rain , Thunderstorm Light Thunderstorms and Rain
1:53 AM 73.0 °F - 66.9 °F 81% 29.85 in 3.0 mi West 12.7 mph 21.9 mph 0.68 in Rain , Thunderstorm Rain
2:12 AM 73.4 °F - 66.2 °F 78% 29.87 in 10.0 mi WSW 11.5 mph 21.9 mph 0.01 in Rain Light Rain
2:34 AM 71.6 °F - 66.2 °F 83% 29.87 in 9.0 mi West 6.9 mph - 0.02 in Rain Light Rain
2:53 AM 73.0 °F - 66.0 °F 79% 29.87 in 10.0 mi West 8.1 mph - 0.02 in   Mostly Cloudy
3:53 AM 71.1 °F - 64.9 °F 81% 29.85 in 10.0 mi West 9.2 mph - N/A   Partly Cloudy
4:53 AM 70.0 °F - 64.0 °F 81% 29.86 in 10.0 mi WNW 6.9 mph - N/A   Clear
5:53 AM 71.1 °F - 64.0 °F 78% 29.87 in 10.0 mi WNW 6.9 mph - N/A   Clear
6:53 AM 72.0 °F - 64.9 °F 78% 29.88 in 10.0 mi West 6.9 mph - N/A   Clear
7:53 AM 75.0 °F - 66.0 °F 73% 29.89 in 10.0 mi WNW 5.8 mph - N/A   Clear
8:53 AM 78.1 °F - 64.0 °F 62% 29.89 in 10.0 mi NW 9.2 mph - N/A   Clear
9:53 AM 81.0 °F 82.2 °F 63.0 °F 54% 29.88 in 10.0 mi WNW 6.9 mph - N/A   Clear
10:53 AM 82.0 °F 82.1 °F 59.0 °F 45% 29.88 in 10.0 mi Variable 5.8 mph - N/A   Clear
11:53 AM 84.0 °F 83.0 °F 55.9 °F 38% 29.89 in 10.0 mi West 6.9 mph - N/A   Clear
12:53 PM 86.0 °F 84.2 °F 54.0 °F 33% 29.89 in 10.0 mi West 6.9 mph - N/A   Clear
1:53 PM 86.0 °F 84.0 °F 53.1 °F 32% 29.89 in 10.0 mi NW 9.2 mph - N/A   Clear
2:53 PM 87.1 °F 85.3 °F 55.0 °F 33% 29.89 in 10.0 mi Variable 6.9 mph - N/A   Scattered Clouds
3:53 PM 87.1 °F 84.9 °F 53.1 °F 31% 29.89 in 10.0 mi WNW 10.4 mph - N/A   Partly Cloudy
4:53 PM 87.1 °F 85.1 °F 54.0 °F 32% 29.89 in 10.0 mi WNW 8.1 mph - N/A   Partly Cloudy
5:53 PM 87.1 °F - 52.0 °F 30% 29.88 in 10.0 mi Variable 6.9 mph - N/A   Clear
6:53 PM 86.0 °F - 51.1 °F 30% 29.88 in 10.0 mi WNW 6.9 mph - N/A   Clear
7:53 PM 82.0 °F 81.3 °F 54.0 °F 38% 29.88 in 10.0 mi Calm Calm - N/A   Clear
8:53 PM 73.9 °F - 62.1 °F 66% 29.88 in 10.0 mi Calm Calm - N/A   Clear
9:53 PM 72.0 °F - 62.1 °F 71% 29.90 in 10.0 mi Calm Calm - N/A   Clear
10:53 PM 70.0 °F - 59.0 °F 68% 29.91 in 10.0 mi WSW 4.6 mph - N/A   Clear
11:53 PM 71.1 °F - 55.9 °F 59% 29.90 in 10.0 mi WSW 3.5 mph - N/A   Clear